Theta_e
307 307 306 305 305 304 304 305 304 305 305 305 308 308 307 308 308 309 309 310 309 309 309 310 311 311 310 308 307 306 306 306 306 309 309 311 313 316 319 322 325 326 327
306 306 305 304 304 304 304 304 303 304 304 304 306 308 307 307 308 308 309 309 309 309 309 310 311 312 312 311 309 309 308 308 308 309 311 313 314 318 319 322 324 325 326
305 304 304 304 303 303 301 302 301 303 304 304 306 307 307 307 307 308 308 309 310 309 309 309 310 311 312 312 312 311 310 310 310 311 313 314 315 317 318 321 323 324 324
304 303 303 302 301 301 302 302 300 301 303 304 304 307 307 308 307 307 307 308 308 309 309 309 310 311 313 314 313 312 312 312 313 313 313 314 316 317 319 320 320 322 322
302 301 301 302 301 300 298 297 296 297 302 303 304 304 306 307 307 307 307 307 308 308 309 309 309 310 312 313 313 314 313 313 313 314 315 318 318 317 320 320 320 320 320
302 302 302 302 301 298 299 296 297 300 302 302 304 304 304 304 306 305 306 307 307 307 306 307 308 309 309 310 311 312 313 313 314 315 317 318 319 319 320 320 321 320 320
301 302 303 303 302 299 300 298 297 299 301 303 303 304 304 302 303 304 304 305 306 306 305 305 305 306 309 309 309 309 309 310 311 312 313 315 317 318 319 319 319 319 318
302 303 303 302 301 299 299 300 298 298 301 302 302 301 300 300 300 304 303 303 306 304 304 303 303 303 305 308 310 309 309 308 308 308 309 311 312 314 316 317 318 317 317
302 302 302 302 300 300 299 300 300 299 299 300 299 298 299 301 301 303 302 302 303 303 302 302 302 303 303 306 308 308 307 307 307 307 307 307 308 312 313 313 314 314 314
302 302 300 300 299 299 299 299 300 300 299 299 298 298 300 300 300 302 302 302 302 302 302 301 301 302 302 303 305 307 307 307 307 306 306 306 306 307 309 312 312 313 312
301 302 300 299 298 298 299 299 300 300 299 299 299 299 299 299 300 300 301 301 301 301 301 301 301 301 301 302 303 305 306 306 306 305 305 305 305 305 306 306 310 312 312
301 301 300 300 298 298 298 299 299 300 299 299 298 298 298 299 299 299 300 300 300 300 300 300 301 301 301 301 302 302 303 304 304 304 304 304 304 304 305 305 306 306 308
301 301 300 300 299 298 298 299 300 300 300 299 298 298 298 298 298 298 299 299 299 300 300 300 301 301 301 301 302 302 302 302 303 303 303 303 303 304 304 304 305 306 306
301 301 299 299 298 297 298 299 300 301 300 299 299 298 298 298 298 298 299 299 299 300 300 300 300 300 300 300 300 301 301 302 302 302 302 303 303 303 303 304 304 305 306
300 300 300 298 297 297 298 298 299 301 300 299 299 299 298 298 298 298 299 299 298 298 298 298 298 298 298 297 298 298 299 299 300 301 301 302 302 302 303 303 303 304 306
300 299 298 298 297 297 298 298 298 299 300 300 299 299 298 298 298 298 297 297 297 296 296 296 296 295 295 295 294 294 296 297 297 298 299 300 301 301 302 303 303 303 304
300 299 298 297 297 297 297 298 298 299 299 300 300 299 299 298 298 297 296 296 296 296 297 296 296 295 294 294 293 294 294 294 295 297 298 299 300 301 301 302 302 302 303
299 299 299 298 297 297 298 299 299 299 299 300 300 299 299 299 298 297 296 297 297 297 296 295 295 294 294 293 292 292 293 293 294 295 296 297 298 299 300 301 301 301 302
299 299 298 298 297 297 298 300 299 299 299 300 300 299 299 298 297 297 297 297 297 296 296 295 294 293 292 292 292 291 292 292 292 294 295 295 297 298 299 300 301 302 302
300 299 298 298 297 297 299 299 299 299 300 300 299 299 298 297 296 297 297 296 295 294 294 293 293 291 291 291 291 291 291 292 292 292 293 294 297 298 299 300 301 301 302
299 298 298 297 297 298 299 299 299 300 300 299 298 298 297 296 297 297 295 294 294 294 293 292 292 291 290 291 291 291 292 292 293 293 294 295 297 298 300 300 301 301 302
300 299 298 297 297 298 299 300 300 300 299 298 298 297 296 297 297 296 295 294 294 293 292 292 291 292 292 292 292 292 293 293 293 294 295 296 298 299 300 301 302 302 302
299 298 297 297 298 299 299 299 299 299 298 298 297 296 297 297 297 296 295 295 295 294 294 294 294 294 294 294 294 293 293 294 294 295 297 298 299 300 301 302 302 302 302
297 295 296 298 299 300 300 299 299 298 298 297 296 297 297 297 297 296 297 297 297 297 297 297 297 297 297 296 296 296 295 296 297 299 299 300 301 302 302 302 302 303 303
295 295 298 299 300 299 298 298 297 298 298 297 297 297 298 297 297 297 298 299 299 300 299 299 299 299 299 299 300 300 300 300 300 301 302 302 302 302 302 302 303 303 303
294 295 298 299 299 299 298 298 298 298 297 298 297 297 297 297 297 298 299 300 301 300 300 300 301 301 302 302 302 302 302 302 303 303 303 303 302 303 303 302 303 303 303
Wind_Speed
13 12 11 13 14 14 15 16 17 18 20 26 26 27 27 26 26 26 25 25 24 23 21 18 19 18 18 16 11 10 11 13 19 22 22 22 14 4 6 5 2 4 6
13 12 11 12 13 14 16 17 17 16 17 21 25 24 24 25 25 26 26 26 26 25 22 20 17 17 16 15 11 8 8 9 14 23 25 21 7 6 6 2 6 8 11
11 10 10 12 15 17 19 17 18 15 16 18 20 22 22 24 25 26 25 25 26 28 25 19 20 19 16 13 11 9 8 10 14 20 23 17 6 5 3 6 8 6 5
9 9 11 15 17 18 18 18 18 15 15 15 16 19 21 22 22 24 26 26 27 28 28 27 21 21 21 13 9 9 9 12 16 22 22 14 6 4 4 3 4 5 7
8 10 14 15 15 17 20 21 18 15 12 14 15 15 17 20 21 23 24 24 26 28 29 29 29 25 18 16 11 9 11 15 17 18 15 9 5 2 3 6 4 4 4
8 10 11 14 15 20 25 23 16 12 12 13 13 15 19 18 18 21 22 22 22 25 27 27 29 25 25 23 15 11 12 13 15 15 13 9 3 4 5 6 5 5 2
6 8 10 11 14 20 25 26 17 15 14 12 13 15 19 20 16 16 20 21 19 20 23 26 27 26 23 18 19 21 20 17 18 16 14 12 7 4 4 8 9 7 5
5 6 10 10 12 16 22 28 24 14 13 13 16 20 21 20 16 13 16 17 16 20 23 24 26 26 25 23 14 16 18 21 22 21 20 20 13 7 3 6 8 7 5
7 9 8 9 12 15 19 24 27 21 17 18 19 18 15 16 16 10 14 16 15 18 19 23 21 20 23 19 16 15 16 18 19 18 19 20 19 13 8 6 2 3 4
8 9 10 9 10 13 16 19 23 26 24 20 13 12 13 15 15 13 10 15 14 16 17 19 18 18 19 16 15 13 14 13 14 15 16 18 20 18 18 9 8 4 10
6 7 8 10 12 11 14 15 18 23 26 19 14 12 15 16 18 18 16 15 18 19 18 17 17 18 17 15 14 12 11 9 8 10 11 13 13 14 14 17 12 7 7
5 8 9 10 12 11 13 13 14 18 23 25 17 18 19 18 18 20 19 18 17 17 17 18 17 17 17 15 13 12 10 9 10 9 10 10 10 10 10 10 10 9 7
5 8 9 10 10 11 12 13 13 15 19 22 23 20 21 21 21 20 19 18 17 18 18 18 16 16 14 14 12 12 11 10 9 9 9 9 10 9 8 5 5 6 5
5 8 10 9 11 12 13 13 14 12 16 18 18 20 21 23 24 24 22 20 18 17 17 18 19 18 16 15 12 11 10 10 11 10 9 8 8 7 7 6 5 4 3
6 9 9 10 11 13 14 12 14 10 13 17 18 19 22 23 26 26 25 24 23 21 20 21 21 19 19 19 17 14 12 9 9 8 8 8 8 8 8 7 5 3 6
7 8 11 10 11 11 12 13 14 12 12 14 14 16 20 21 22 24 23 21 20 20 21 23 24 25 22 26 23 20 15 13 11 10 8 7 7 7 8 9 5 3 2
9 9 9 11 11 13 14 13 13 12 12 13 14 14 20 21 22 24 22 21 20 20 21 23 25 23 17 25 19 17 16 14 13 9 8 6 6 4 7 6 5 3 3
10 6 10 10 13 11 14 15 14 13 12 13 16 17 19 22 21 22 22 22 24 23 23 25 22 18 21 17 21 15 15 13 12 9 6 5 5 5 5 5 6 6 4
7 10 11 11 11 11 11 14 16 13 11 15 19 18 19 20 22 22 23 25 27 27 22 23 19 21 19 18 20 14 14 12 12 11 6 5 6 5 4 6 6 6 6
10 11 12 11 12 13 12 14 15 11 12 18 20 21 23 22 25 27 29 30 26 23 22 21 18 21 16 15 16 12 12 11 11 12 6 4 6 5 4 5 6 7 6
11 9 12 11 14 15 16 15 11 11 17 19 19 23 22 23 27 31 31 24 25 18 25 16 21 18 17 15 14 11 11 11 10 8 5 5 5 4 5 7 7 7 6
13 13 13 14 13 15 17 12 12 15 19 20 22 23 24 25 30 29 27 23 22 20 20 20 19 17 16 15 14 13 11 10 8 5 5 5 6 5 7 8 7 8 7
13 12 11 12 13 15 14 14 16 17 17 19 20 22 25 29 30 26 24 24 23 23 22 21 21 19 17 15 14 13 11 9 6 5 6 7 6 7 7 8 9 9 7
12 10 9 10 13 14 16 17 15 15 17 17 20 22 25 28 26 22 23 23 24 23 21 21 22 22 20 18 17 16 13 12 10 9 8 8 9 7 7 9 9 7 8
10 8 8 10 13 17 17 16 15 16 18 19 20 22 25 25 22 21 21 22 22 20 19 19 21 21 19 17 16 15 13 11 10 10 10 10 11 10 10 11 10 10 9
9 8 9 11 13 16 16 17 16 17 19 20 21 23 23 23 20 19 20 21 21 20 19 18 18 18 18 17 16 14 12 12 12 10 9 9 11 11 11 10 11 10 10
Wind_Direction
353 1 6 5 8 6 5 7 10 14 7 9 7 5 8 11 12 10 8 2 358 352 348 341 342 337 337 332 315 299 286 279 282 304 309 323 318 304 354 348 19 115 169
16 11 5 10 5 357 355 352 351 354 357 1 4 2 8 13 13 14 13 18 15 8 358 355 344 346 346 347 333 320 302 293 291 301 320 331 297 299 354 79 127 98 111
25 19 11 5 359 355 350 346 344 344 346 351 2 1 10 12 16 17 16 15 20 22 15 11 7 360 346 340 340 334 315 305 307 308 325 337 276 326 322 122 119 120 131
30 21 11 9 357 352 350 344 342 338 339 346 358 4 6 6 10 13 17 21 26 28 27 26 23 9 4 354 346 344 330 325 327 327 324 325 223 228 268 202 142 137 126
28 21 14 1 8 3 354 343 331 327 331 337 343 356 357 360 9 4 8 10 17 25 29 29 28 28 19 10 3 347 328 324 330 334 356 32 169 255 224 230 188 163 131
21 20 19 18 14 8 4 359 356 351 339 335 333 340 351 347 358 0 3 3 12 16 18 21 24 26 31 34 29 18 9 6 4 11 14 31 50 286 269 241 233 225 215
28 24 5 2 9 12 10 9 1 351 350 340 334 336 338 343 338 350 355 357 3 8 11 10 13 13 17 27 35 43 52 54 49 37 34 25 10 332 255 259 262 253 248
26 12 0 359 11 11 11 13 12 3 1 345 336 332 333 334 340 346 345 348 2 11 5 1 6 4 7 13 15 27 33 34 38 41 42 40 24 9 298 260 253 254 239
17 6 354 6 13 11 10 14 19 15 357 340 336 343 356 356 354 2 359 352 354 357 355 356 359 5 3 5 17 25 27 28 24 29 29 31 31 37 45 43 85 205 168
8 359 7 10 12 9 6 8 13 14 9 0 2 7 359 358 358 357 347 352 354 353 355 354 359 6 5 356 355 9 17 25 26 19 25 26 22 23 39 48 58 94 134
349 345 351 10 13 10 1 360 5 10 14 17 16 9 9 15 22 14 3 353 351 351 352 355 357 355 353 355 354 355 4 0 14 7 11 18 25 27 15 23 43 52 70
329 338 345 1 10 9 0 354 356 3 14 24 24 28 25 24 22 20 16 9 2 359 1 1 357 355 350 349 349 346 343 344 344 348 351 359 3 11 16 13 25 35 35
336 349 350 3 359 356 354 351 348 354 8 17 23 22 18 19 18 14 12 6 1 358 357 355 352 346 341 343 340 340 344 341 346 346 353 357 359 356 346 348 338 353 7
3 346 359 3 359 355 350 356 352 347 3 12 12 14 10 9 9 10 8 5 2 356 350 350 349 348 349 347 345 346 346 347 349 348 352 344 337 336 344 338 326 303 306
2 356 357 356 1 8 2 358 359 358 0 8 11 10 3 2 2 0 358 353 353 352 350 348 346 343 348 351 349 351 351 349 354 350 344 344 343 346 352 346 335 334 263
345 349 356 349 355 355 353 4 13 12 360 5 6 3 4 354 352 353 352 351 353 356 359 356 354 352 356 356 354 350 348 346 348 346 344 343 346 352 353 358 349 345 279
346 351 352 353 349 3 354 345 343 354 354 358 353 350 355 352 353 354 351 354 355 348 347 348 349 348 345 349 345 343 341 339 337 337 336 336 340 340 344 354 3 355 341
350 360 345 347 353 348 355 353 355 346 345 351 354 349 348 347 351 352 348 347 347 347 349 347 339 342 339 341 343 339 339 342 342 344 340 333 330 335 336 342 347 353 334
356 341 346 344 343 346 335 347 356 350 344 347 347 346 347 345 351 357 350 346 345 345 343 344 336 341 349 334 343 343 340 345 345 344 345 350 347 338 321 340 350 359 358
335 327 341 336 339 343 343 345 354 353 347 348 349 350 349 356 359 354 350 349 345 342 336 348 339 340 343 339 345 344 345 348 348 350 1 349 350 345 351 350 350 350 350
345 333 335 335 338 346 347 351 355 351 350 352 353 352 357 2 353 352 351 350 348 353 344 355 342 357 353 356 354 353 349 346 344 349 1 359 358 4 2 358 356 357 357
342 337 332 337 346 351 354 1 358 351 350 353 354 358 6 358 354 355 354 359 3 2 0 2 4 7 7 6 2 357 354 349 350 356 13 16 17 20 3 8 13 3 359
340 330 327 335 352 1 4 358 352 351 355 360 2 2 1 356 356 1 8 10 14 16 19 18 15 17 17 16 14 9 9 12 27 49 45 47 35 21 29 23 4 1 358
342 333 339 349 358 1 356 351 357 6 1 359 2 4 359 357 2 11 16 19 21 22 22 25 28 30 33 36 38 39 47 52 59 64 54 38 38 35 18 2 358 4 356
346 344 352 0 4 5 18 19 13 6 2 5 9 4 0 359 9 16 19 21 21 19 20 22 25 25 24 27 29 33 37 40 42 46 47 46 23 11 7 359 3 2 353
349 347 356 358 2 7 10 9 4 1 5 14 8 5 2 2 11 15 20 22 20 21 22 23 25 26 27 29 30 33 39 44 43 43 37 27 24 19 8 8 6 11 349